Погода в Кармаскалах

Россия / Республика Башкортостан     54°21′45″N   56°09′33″E
темп.,
°C
ветер,
м/с
пор.,
м/с
влажн.,
%
обл.,
%
осадки,
мм/ч
давл.,
гПа
погр.,
м
26 февраля, пт
пт2623:00−26ю46940 0.0 103086
02:00−27ю48930 0.0 1028130
05:00−24ю499022 0.0 1028211
08:00−24ю349799 0.1 1027105
11:00−20ююв359390 0.1 1026242
14:00−16ю468631 0.0 1024497
17:00−13ю368862 0.0 1023431
20:00−18ююз339294 0.0 102230
27 февраля, сб
сб2723:00−19ю459773 0.0 102088
02:00−19ююв5128778 0.0 1017303
05:00−16юв6158489 0.0 1013530
08:00−13ююв81495100 1.4 1009714
11:00−12ююв81292100 3.3 1007751
14:00−9ююв81193100 0.4 1004731
17:00−8юв61094100 1.4 1003566
20:00−10вюв4794100 0.3 1002171
28 февраля, вс
вс2823:00−8юв3696100 0.8 1002187
02:00−6юв3696100 0.9 1001161
05:00−5ююв3497100 1.6 1001139
08:00−5ююв349798 0.6 100089
11:00−3ю359699 0.8 1000291
14:00−1ю23100100 0.6 1001258
17:00−2ссз4598100 1.4 1002240
20:00−7сз699597 0.6 1004236
1 марта, пн
пн123:00−10сз589591 0.8 1007209
02:00−12сз479598 0.4 1009211
05:00−14сз469599 0.9 1012203
08:00−16сз469696 0.3 1014191
11:00−17сз359593 0.4 1016206
14:00−15сз349395 0.1 1018317
17:00−15сз469498 0.1 1019307
20:00−19сз469895 0.1 1021101
2 марта, вт
вт223:00−20сз339996 0.1 102355
02:00−22зсз12100100 0.1 102320
05:00−23юз12100100 0.1 102320
08:00−23ююз339879 0.0 102224
11:00−19ю589566 0.0 1020237
14:00−15ююз7108990 0.0 1017355
17:00−13ююз8138895 0.0 1015473
20:00−15ююз91590100 0.0 1014467